Time,TemperatureF,DewpointF,PressureIn,WindDirection,WindDirectionDegrees,WindSpeedMPH,WindSpeedGustMPH,Humidity,HourlyPrecipIn,Conditions,Clouds,dailyrainin,SoftwareType,DateUTC
2013-07-04 00:00:00,66.7,26.7,30.35,SSW,202,0.0,0.0,22,0.00,,,0.00,WeatherCatV1.12B45,2013-07-04 07:00:00,
2013-07-04 00:05:00,66.6,26.5,30.35,SSW,202,0.0,0.0,22,0.00,,,0.00,WeatherCatV1.12B45,2013-07-04 07:05:00,
2013-07-04 00:10:00,66.4,27.5,30.35,SW,227,0.0,0.0,23,0.00,,,0.00,WeatherCatV1.12B45,2013-07-04 07:10:00,
2013-07-04 00:15:00,66.0,27.2,30.35,SE,141,0.0,0.0,23,0.00,,,0.00,WeatherCatV1.12B45,2013-07-04 07:15:00,
2013-07-04 00:20:00,66.0,27.2,30.35,SW,217,2.7,3.6,23,0.00,,,0.00,WeatherCatV1.12B45,2013-07-04 07:20:00,
2013-07-04 00:25:00,67.6,25.1,30.35,SW,220,3.1,3.1,20,0.00,,,0.00,WeatherCatV1.12B45,2013-07-04 07:25:00,
2013-07-04 00:30:00,68.9,26.2,30.35,SSW,193,3.1,4.5,20,0.00,,,0.00,WeatherCatV1.12B45,2013-07-04 07:30:00,
2013-07-04 00:35:00,69.6,22.9,30.35,SW,228,3.1,5.4,17,0.00,,,0.00,WeatherCatV1.12B45,2013-07-04 07:35:00,
2013-07-04 00:40:00,69.8,23.0,30.35,SW,228,2.7,2.7,17,0.00,,,0.00,WeatherCatV1.12B45,2013-07-04 07:40:00,
2013-07-04 00:45:00,69.8,23.0,30.35,South,190,0.0,2.2,17,0.00,,,0.00,WeatherCatV1.12B45,2013-07-04 07:45:00,
2013-07-04 00:50:00,69.6,22.9,30.35,SSW,205,0.0,4.9,17,0.00,,,0.00,WeatherCatV1.12B45,2013-07-04 07:50:00,
2013-07-04 00:55:00,68.9,26.2,30.35,SE,129,0.0,0.0,20,0.00,,,0.00,WeatherCatV1.12B45,2013-07-04 07:55:00,
2013-07-04 01:00:00,67.6,25.1,30.35,WSW,240,0.0,0.0,20,0.00,,,0.00,WeatherCatV1.12B45,2013-07-04 08:00:00,
2013-07-04 01:05:00,66.6,27.6,30.35,WSW,240,0.0,0.0,23,0.00,,,0.00,WeatherCatV1.12B45,2013-07-04 08:05:00,
2013-07-04 01:10:00,65.8,27.0,30.35,WSW,240,0.0,0.0,23,0.00,,,0.00,WeatherCatV1.12B45,2013-07-04 08:10:00,
2013-07-04 01:15:00,65.1,27.4,30.35,WSW,240,0.0,0.0,24,0.00,,,0.00,WeatherCatV1.12B45,2013-07-04 08:15:00,
2013-07-04 01:20:00,64.4,26.8,30.35,WSW,240,0.0,0.0,24,0.00,,,0.00,WeatherCatV1.12B45,2013-07-04 08:20:00,
2013-07-04 01:25:00,64.2,27.7,30.35,WSW,240,0.0,0.0,25,0.00,,,0.00,WeatherCatV1.12B45,2013-07-04 08:25:00,
2013-07-04 01:30:00,64.0,27.5,30.35,WSW,240,0.0,0.0,25,0.00,,,0.00,WeatherCatV1.12B45,2013-07-04 08:30:00,
2013-07-04 01:35:00,64.0,27.5,30.35,WSW,240,0.0,0.0,25,0.00,,,0.00,WeatherCatV1.12B45,2013-07-04 08:35:00,
2013-07-04 01:40:00,63.9,27.4,30.35,WSW,240,0.0,0.0,25,0.00,,,0.00,WeatherCatV1.12B45,2013-07-04 08:40:00,
2013-07-04 01:45:00,63.5,28.0,30.35,WSW,240,0.0,0.0,26,0.00,,,0.00,WeatherCatV1.12B45,2013-07-04 08:45:00,
2013-07-04 01:50:00,63.1,28.6,30.35,WSW,240,0.0,0.0,27,0.00,,,0.00,WeatherCatV1.12B45,2013-07-04 08:50:00,
2013-07-04 01:55:00,63.0,29.3,30.35,WSW,240,0.0,0.0,28,0.00,,,0.00,WeatherCatV1.12B45,2013-07-04 08:55:00,
2013-07-04 02:00:00,63.0,28.5,30.35,WSW,240,0.0,0.0,27,0.00,,,0.00,WeatherCatV1.12B45,2013-07-04 09:00:00,
2013-07-04 02:05:00,63.1,28.6,30.35,WSW,240,0.0,0.0,27,0.00,,,0.00,WeatherCatV1.12B45,2013-07-04 09:05:00,
2013-07-04 02:10:00,63.1,28.6,30.35,WSW,240,0.0,0.0,27,0.00,,,0.00,WeatherCatV1.12B45,2013-07-04 09:10:00,
2013-07-04 02:15:00,63.0,28.5,30.35,WSW,240,0.0,0.0,27,0.00,,,0.00,WeatherCatV1.12B45,2013-07-04 09:15:00,
2013-07-04 02:20:00,62.8,29.2,30.35,WSW,240,0.0,0.0,28,0.00,,,0.00,WeatherCatV1.12B45,2013-07-04 09:20:00,
2013-07-04 02:25:00,62.4,30.6,30.35,WSW,240,0.0,0.0,30,0.00,,,0.00,WeatherCatV1.12B45,2013-07-04 09:25:00,
2013-07-04 02:30:00,62.2,31.2,30.35,WSW,240,0.0,0.0,31,0.00,,,0.00,WeatherCatV1.12B45,2013-07-04 09:30:00,
2013-07-04 02:35:00,61.9,30.9,30.35,WSW,240,0.0,0.0,31,0.00,,,0.00,WeatherCatV1.12B45,2013-07-04 09:35:00,
2013-07-04 02:40:00,61.9,31.7,30.35,WSW,240,0.0,0.0,32,0.00,,,0.00,WeatherCatV1.12B45,2013-07-04 09:40:00,
2013-07-04 02:45:00,61.9,30.1,30.35,SE,130,0.0,0.0,30,0.00,,,0.00,WeatherCatV1.12B45,2013-07-04 09:45:00,
2013-07-04 02:50:00,62.2,30.4,30.35,SSW,193,0.0,3.6,30,0.00,,,0.00,WeatherCatV1.12B45,2013-07-04 09:50:00,
2013-07-04 02:55:00,62.6,31.5,30.35,SSW,207,0.0,0.0,31,0.00,,,0.00,WeatherCatV1.12B45,2013-07-04 09:55:00,
2013-07-04 03:00:00,61.9,33.2,30.35,SE,126,0.0,0.0,34,0.00,,,0.00,WeatherCatV1.12B45,2013-07-04 10:00:00,
2013-07-04 03:05:00,61.2,32.6,30.35,East,94,0.0,4.5,34,0.00,,,0.00,WeatherCatV1.12B45,2013-07-04 10:05:00,
2013-07-04 03:10:00,60.8,33.7,30.35,ENE,63,0.0,2.7,36,0.00,,,0.00,WeatherCatV1.12B45,2013-07-04 10:10:00,
2013-07-04 03:15:00,60.4,33.4,30.35,ENE,68,0.0,0.0,36,0.00,,,0.00,WeatherCatV1.12B45,2013-07-04 10:15:00,
2013-07-04 03:20:00,60.1,33.0,30.35,NNE,30,2.2,2.7,36,0.00,,,0.00,WeatherCatV1.12B45,2013-07-04 10:20:00,
2013-07-04 03:25:00,60.3,32.5,30.35,NE,54,0.0,0.0,35,0.00,,,0.00,WeatherCatV1.12B45,2013-07-04 10:25:00,
2013-07-04 03:30:00,60.6,32.8,30.35,SSE,159,0.0,0.0,35,0.00,,,0.00,WeatherCatV1.12B45,2013-07-04 10:30:00,
2013-07-04 03:35:00,60.6,32.1,30.35,ENE,58,0.0,0.0,34,0.00,,,0.00,WeatherCatV1.12B45,2013-07-04 10:35:00,
2013-07-04 03:40:00,60.6,32.1,30.35,South,190,0.0,0.0,34,0.00,,,0.00,WeatherCatV1.12B45,2013-07-04 10:40:00,
2013-07-04 03:45:00,60.6,32.1,30.35,ESE,108,0.0,0.0,34,0.00,,,0.00,WeatherCatV1.12B45,2013-07-04 10:45:00,
2013-07-04 03:50:00,60.8,32.3,30.35,ESE,122,0.0,4.9,34,0.00,,,0.00,WeatherCatV1.12B45,2013-07-04 10:50:00,
2013-07-04 03:55:00,60.6,32.8,30.35,ENE,73,4.9,4.9,35,0.00,,,0.00,WeatherCatV1.12B45,2013-07-04 10:55:00,
2013-07-04 04:00:00,60.3,32.5,30.35,SE,130,0.0,0.0,35,0.00,,,0.00,WeatherCatV1.12B45,2013-07-04 11:00:00,
2013-07-04 04:05:00,60.3,31.8,30.35,NNE,20,0.0,2.7,34,0.00,,,0.00,WeatherCatV1.12B45,2013-07-04 11:05:00,
2013-07-04 04:10:00,60.6,32.8,30.35,NNE,18,0.0,0.0,35,0.00,,,0.00,WeatherCatV1.12B45,2013-07-04 11:10:00,
2013-07-04 04:15:00,60.4,31.9,30.35,NNW,331,0.0,0.0,34,0.00,,,0.00,WeatherCatV1.12B45,2013-07-04 11:15:00,
2013-07-04 04:20:00,60.3,31.8,30.35,NNE,15,0.0,2.7,34,0.00,,,0.00,WeatherCatV1.12B45,2013-07-04 11:20:00,
2013-07-04 04:25:00,60.3,31.8,30.35,NNE,15,0.0,0.0,34,0.00,,,0.00,WeatherCatV1.12B45,2013-07-04 11:25:00,
2013-07-04 04:30:00,59.9,32.2,30.35,North,353,0.0,0.0,35,0.00,,,0.00,WeatherCatV1.12B45,2013-07-04 11:30:00,
2013-07-04 04:35:00,59.5,31.9,30.35,WSW,251,0.0,0.0,35,0.00,,,0.00,WeatherCatV1.12B45,2013-07-04 11:35:00,
2013-07-04 04:40:00,59.5,31.9,30.35,ENE,73,0.0,0.0,35,0.00,,,0.00,WeatherCatV1.12B45,2013-07-04 11:40:00,
2013-07-04 04:45:00,59.7,32.0,30.35,East,82,0.0,0.0,35,0.00,,,0.00,WeatherCatV1.12B45,2013-07-04 11:45:00,
2013-07-04 04:50:00,59.5,31.9,30.35,NE,36,0.0,0.0,35,0.00,,,0.00,WeatherCatV1.12B45,2013-07-04 11:50:00,
2013-07-04 04:55:00,59.4,31.7,30.35,NNE,28,0.0,0.0,35,0.00,,,0.00,WeatherCatV1.12B45,2013-07-04 11:55:00,
2013-07-04 05:00:00,59.2,31.5,30.35,NNE,28,0.0,0.0,35,0.00,,,0.00,WeatherCatV1.12B45,2013-07-04 12:00:00,
2013-07-04 05:05:00,59.0,32.1,30.35,West,263,0.0,0.0,36,0.00,,,0.00,WeatherCatV1.12B45,2013-07-04 12:05:00,
2013-07-04 05:10:00,58.6,32.4,30.35,West,263,0.0,0.0,37,0.00,,,0.00,WeatherCatV1.12B45,2013-07-04 12:10:00,
2013-07-04 05:16:00,58.5,32.3,30.35,SW,222,0.0,0.0,37,0.00,,,0.00,WeatherCatV1.12B45,2013-07-04 12:16:00,
2013-07-04 05:21:00,58.5,31.6,30.35,West,277,0.0,0.0,36,0.00,,,0.00,WeatherCatV1.12B45,2013-07-04 12:21:00,
2013-07-04 05:26:00,58.8,31.9,30.35,SW,236,0.0,4.0,36,0.00,,,0.00,WeatherCatV1.12B45,2013-07-04 12:26:00,
2013-07-04 05:31:00,58.8,31.9,30.35,East,100,0.0,0.0,36,0.00,,,0.00,WeatherCatV1.12B45,2013-07-04 12:31:00,
2013-07-04 05:36:00,59.0,32.1,30.35,South,185,0.0,0.0,36,0.00,,,0.00,WeatherCatV1.12B45,2013-07-04 12:36:00,
2013-07-04 05:41:00,59.2,32.2,30.35,ESE,103,3.1,3.1,36,0.00,,,0.00,WeatherCatV1.12B45,2013-07-04 12:41:00,
2013-07-04 05:46:00,59.4,32.4,30.35,ENE,70,0.0,0.0,36,0.00,,,0.00,WeatherCatV1.12B45,2013-07-04 12:46:00,
2013-07-04 05:51:00,59.5,32.6,30.35,SSW,210,0.0,0.0,36,0.00,,,0.00,WeatherCatV1.12B45,2013-07-04 12:51:00,
2013-07-04 05:56:00,59.5,31.9,30.35,SE,139,3.6,4.9,35,0.00,,,0.00,WeatherCatV1.12B45,2013-07-04 12:56:00,
2013-07-04 06:01:00,60.1,32.3,30.35,ESE,122,0.0,3.1,35,0.00,,,0.00,WeatherCatV1.12B45,2013-07-04 13:01:00,
2013-07-04 06:06:00,60.3,32.5,30.35,WSW,248,0.0,0.0,35,0.00,,,0.00,WeatherCatV1.12B45,2013-07-04 13:06:00,
2013-07-04 06:11:00,60.3,32.5,30.35,WSW,244,0.0,0.0,35,0.00,,,0.00,WeatherCatV1.12B45,2013-07-04 13:11:00,
2013-07-04 06:16:00,60.3,33.2,30.35,NNE,17,0.0,0.0,36,0.00,,,0.00,WeatherCatV1.12B45,2013-07-04 13:16:00,
2013-07-04 06:21:00,60.4,32.7,30.35,SE,124,0.0,0.0,35,0.00,,,0.00,WeatherCatV1.12B45,2013-07-04 13:21:00,
2013-07-04 06:26:00,60.6,32.8,30.35,North,357,0.0,0.0,35,0.00,,,0.00,WeatherCatV1.12B45,2013-07-04 13:26:00,
2013-07-04 06:31:00,60.8,32.3,30.35,SE,132,2.7,3.1,34,0.00,,,0.00,WeatherCatV1.12B45,2013-07-04 13:31:00,
2013-07-04 06:36:00,61.0,32.4,30.35,ENE,58,0.0,3.1,34,0.00,,,0.00,WeatherCatV1.12B45,2013-07-04 13:36:00,
2013-07-04 06:41:00,61.5,32.9,30.35,North,0,0.0,2.7,34,0.00,,,0.00,WeatherCatV1.12B45,2013-07-04 13:41:00,
2013-07-04 06:46:00,61.5,33.6,30.35,ESE,107,6.3,6.3,35,0.00,,,0.00,WeatherCatV1.12B45,2013-07-04 13:46:00,
2013-07-04 06:51:00,62.1,33.4,30.38,SE,136,0.0,0.0,34,0.00,,,0.00,WeatherCatV1.12B45,2013-07-04 13:51:00,
2013-07-04 06:56:00,62.2,33.5,30.38,NE,52,0.0,3.6,34,0.00,,,0.00,WeatherCatV1.12B45,2013-07-04 13:56:00,
2013-07-04 07:01:00,62.1,33.4,30.38,SE,125,0.0,0.0,34,0.00,,,0.00,WeatherCatV1.12B45,2013-07-04 14:01:00,
2013-07-04 07:06:00,62.2,33.5,30.38,SW,235,0.0,0.0,34,0.00,,,0.00,WeatherCatV1.12B45,2013-07-04 14:06:00,
2013-07-04 07:11:00,63.9,34.2,30.38,SE,129,2.2,4.0,33,0.00,,,0.00,WeatherCatV1.12B45,2013-07-04 14:11:00,
2013-07-04 07:16:00,65.1,33.7,30.38,ESE,119,0.0,5.8,31,0.00,,,0.00,WeatherCatV1.12B45,2013-07-04 14:16:00,
2013-07-04 07:21:00,64.6,32.4,30.38,ESE,112,0.0,5.4,30,0.00,,,0.00,WeatherCatV1.12B45,2013-07-04 14:21:00,
2013-07-04 07:26:00,64.6,34.1,30.38,ESE,119,0.0,2.2,32,0.00,,,0.00,WeatherCatV1.12B45,2013-07-04 14:26:00,
2013-07-04 07:31:00,65.1,34.5,30.38,SSE,168,2.2,5.8,32,0.00,,,0.00,WeatherCatV1.12B45,2013-07-04 14:31:00,
2013-07-04 07:36:00,67.1,34.6,30.38,South,177,0.0,6.3,30,0.00,,,0.00,WeatherCatV1.12B45,2013-07-04 14:36:00,
2013-07-04 07:41:00,71.6,34.9,30.38,SSW,192,0.0,6.7,26,0.00,,,0.00,WeatherCatV1.12B45,2013-07-04 14:41:00,
2013-07-04 07:46:00,75.0,35.8,30.38,South,183,0.0,2.2,24,0.00,,,0.00,WeatherCatV1.12B45,2013-07-04 14:46:00,
2013-07-04 07:51:00,77.2,35.4,30.38,SE,126,0.0,3.1,22,0.00,,,0.00,WeatherCatV1.12B45,2013-07-04 14:51:00,
2013-07-04 07:56:00,78.4,35.3,30.38,ESE,118,5.8,7.6,21,0.00,,,0.00,WeatherCatV1.12B45,2013-07-04 14:56:00,
2013-07-04 08:01:00,79.5,34.9,30.38,SSE,147,4.0,9.6,20,0.00,,,0.00,WeatherCatV1.12B45,2013-07-04 15:01:00,
2013-07-04 08:06:00,79.2,34.6,30.38,SE,125,8.1,8.3,20,0.00,,,0.00,WeatherCatV1.12B45,2013-07-04 15:06:00,
2013-07-04 08:11:00,79.2,34.6,30.38,SSW,207,7.6,7.6,20,0.00,,,0.00,WeatherCatV1.12B45,2013-07-04 15:11:00,
2013-07-04 08:16:00,79.5,34.9,30.38,SE,146,2.7,7.6,20,0.00,,,0.00,WeatherCatV1.12B45,2013-07-04 15:16:00,
2013-07-04 08:21:00,80.2,35.5,30.38,SE,128,4.9,4.9,20,0.00,,,0.00,WeatherCatV1.12B45,2013-07-04 15:21:00,
2013-07-04 08:26:00,80.1,31.3,30.38,ENE,65,3.6,6.3,17,0.00,,,0.00,WeatherCatV1.12B45,2013-07-04 15:26:00,
2013-07-04 08:31:00,80.1,35.4,30.38,SE,137,0.0,6.3,20,0.00,,,0.00,WeatherCatV1.12B45,2013-07-04 15:31:00,
2013-07-04 08:36:00,81.0,34.8,30.38,SSW,194,4.0,5.8,19,0.00,,,0.00,WeatherCatV1.12B45,2013-07-04 15:36:00,
2013-07-04 08:41:00,81.3,32.3,30.38,NNE,28,8.1,8.1,17,0.00,,,0.00,WeatherCatV1.12B45,2013-07-04 15:41:00,
2013-07-04 08:46:00,82.2,33.0,30.38,East,87,0.0,5.4,17,0.00,,,0.00,WeatherCatV1.12B45,2013-07-04 15:46:00,
2013-07-04 08:51:00,82.8,32.0,30.38,SSW,206,2.2,8.7,16,0.00,,,0.00,WeatherCatV1.12B45,2013-07-04 15:51:00,
2013-07-04 08:56:00,83.7,32.7,30.38,ESE,104,4.0,5.8,16,0.00,,,0.00,WeatherCatV1.12B45,2013-07-04 15:56:00,
2013-07-04 09:01:00,84.4,28.2,30.38,ENE,75,0.0,2.7,13,0.00,,,0.00,WeatherCatV1.12B45,2013-07-04 16:01:00,
2013-07-04 09:06:00,84.4,28.2,30.38,ESE,114,2.2,2.2,13,0.00,,,0.00,WeatherCatV1.12B45,2013-07-04 16:06:00,
2013-07-04 09:11:00,85.3,28.9,30.38,NE,37,0.0,0.0,13,0.00,,,0.00,WeatherCatV1.12B45,2013-07-04 16:11:00,
2013-07-04 09:16:00,85.6,29.1,30.38,SSE,166,3.1,4.0,13,0.00,,,0.00,WeatherCatV1.12B45,2013-07-04 16:16:00,
2013-07-04 09:21:00,86.2,29.6,30.38,SE,134,4.9,5.4,13,0.00,,,0.00,WeatherCatV1.12B45,2013-07-04 16:21:00,
2013-07-04 09:26:00,85.3,24.8,30.38,SE,126,5.4,11.0,11,0.00,,,0.00,WeatherCatV1.12B45,2013-07-04 16:26:00,
2013-07-04 09:31:00,86.0,29.4,30.38,SSW,203,5.4,5.4,13,0.00,,,0.00,WeatherCatV1.12B45,2013-07-04 16:31:00,
2013-07-04 09:36:00,86.5,25.8,30.38,East,85,2.2,2.2,11,0.00,,,0.00,WeatherCatV1.12B45,2013-07-04 16:36:00,
2013-07-04 09:41:00,87.3,26.3,30.38,ESE,115,3.1,8.7,11,0.00,,,0.00,WeatherCatV1.12B45,2013-07-04 16:41:00,
2013-07-04 09:46:00,88.0,31.0,30.38,East,88,0.0,4.9,13,0.00,,,0.00,WeatherCatV1.12B45,2013-07-04 16:46:00,
2013-07-04 09:51:00,88.2,24.7,30.38,ESE,103,0.0,2.2,10,0.00,,,0.00,WeatherCatV1.12B45,2013-07-04 16:51:00,
2013-07-04 09:56:00,87.6,26.6,30.38,SSW,213,0.0,0.0,11,0.00,,,0.00,WeatherCatV1.12B45,2013-07-04 16:56:00,
2013-07-04 10:01:00,87.6,26.6,30.38,East,91,4.0,5.4,11,0.00,,,0.00,WeatherCatV1.12B45,2013-07-04 17:01:00,
2013-07-04 10:06:00,88.0,24.6,30.38,NNE,28,0.0,7.6,10,0.00,,,0.00,WeatherCatV1.12B45,2013-07-04 17:06:00,
2013-07-04 10:11:00,88.5,25.0,30.38,SSW,200,0.0,3.6,10,0.00,,,0.00,WeatherCatV1.12B45,2013-07-04 17:11:00,
2013-07-04 10:16:00,88.5,25.0,30.38,SE,136,3.1,6.3,10,0.00,,,0.00,WeatherCatV1.12B45,2013-07-04 17:16:00,
2013-07-04 10:21:00,88.5,25.0,30.38,NE,37,0.0,5.4,10,0.00,,,0.00,WeatherCatV1.12B45,2013-07-04 17:21:00,
2013-07-04 10:26:00,89.1,25.4,30.38,SSE,165,3.1,8.3,10,0.00,,,0.00,WeatherCatV1.12B45,2013-07-04 17:26:00,
2013-07-04 10:31:00,90.1,26.2,30.38,SW,214,0.0,8.1,10,0.00,,,0.00,WeatherCatV1.12B45,2013-07-04 17:31:00,
2013-07-04 10:36:00,90.9,26.8,30.38,WSW,246,5.4,5.4,10,0.00,,,0.00,WeatherCatV1.12B45,2013-07-04 17:36:00,
2013-07-04 10:41:00,90.5,26.5,30.38,East,95,5.4,5.4,10,0.00,,,0.00,WeatherCatV1.12B45,2013-07-04 17:41:00,
2013-07-04 10:46:00,88.9,25.3,30.38,ESE,116,0.0,10.1,10,0.00,,,0.00,WeatherCatV1.12B45,2013-07-04 17:46:00,
2013-07-04 10:51:00,90.3,26.4,30.35,SE,136,3.6,4.9,10,0.00,,,0.00,WeatherCatV1.12B45,2013-07-04 17:51:00,
2013-07-04 10:56:00,90.5,18.0,30.35,SSE,150,0.0,5.8,7,0.00,,,0.00,WeatherCatV1.12B45,2013-07-04 17:56:00,
2013-07-04 11:01:00,90.7,26.6,30.35,SSW,197,0.0,5.4,10,0.00,,,0.00,WeatherCatV1.12B45,2013-07-04 18:01:00,
2013-07-04 11:06:00,90.0,17.7,30.38,West,276,3.1,4.0,7,0.00,,,0.00,WeatherCatV1.12B45,2013-07-04 18:06:00,
2013-07-04 11:11:00,89.2,20.2,30.38,South,183,6.7,6.7,8,0.00,,,0.00,WeatherCatV1.12B45,2013-07-04 18:11:00,
2013-07-04 11:16:00,88.2,24.7,30.38,West,259,3.6,5.8,10,0.00,,,0.00,WeatherCatV1.12B45,2013-07-04 18:16:00,
2013-07-04 11:21:00,87.3,26.3,30.38,NE,38,3.1,4.0,11,0.00,,,0.00,WeatherCatV1.12B45,2013-07-04 18:21:00,
2013-07-04 11:26:00,86.5,18.3,30.38,ENE,62,3.6,5.4,8,0.00,,,0.00,WeatherCatV1.12B45,2013-07-04 18:26:00,
2013-07-04 11:31:00,85.8,25.2,30.38,ESE,118,3.1,8.1,11,0.00,,,0.00,WeatherCatV1.12B45,2013-07-04 18:31:00,
2013-07-04 11:36:00,84.9,24.5,30.38,SW,230,0.0,3.6,11,0.00,,,0.00,WeatherCatV1.12B45,2013-07-04 18:36:00,
2013-07-04 11:41:00,84.7,24.4,30.38,WSW,245,0.0,3.6,11,0.00,,,0.00,WeatherCatV1.12B45,2013-07-04 18:41:00,
2013-07-04 11:46:00,83.7,18.9,30.38,SW,222,4.0,8.1,9,0.00,,,0.00,WeatherCatV1.12B45,2013-07-04 18:46:00,
2013-07-04 11:51:00,83.1,23.2,30.38,ESE,104,6.3,6.3,11,0.00,,,0.00,WeatherCatV1.12B45,2013-07-04 18:51:00,
2013-07-04 11:56:00,82.2,24.5,30.38,ENE,61,2.2,5.8,12,0.00,,,0.00,WeatherCatV1.12B45,2013-07-04 18:56:00,
2013-07-04 12:01:00,81.3,23.9,30.38,ESE,117,2.2,5.4,12,0.00,,,0.00,WeatherCatV1.12B45,2013-07-04 19:01:00,
2013-07-04 12:06:00,80.8,23.4,30.38,SE,137,0.0,8.3,12,0.00,,,0.00,WeatherCatV1.12B45,2013-07-04 19:06:00,
2013-07-04 12:11:00,80.4,23.2,30.38,SW,216,5.4,6.3,12,0.00,,,0.00,WeatherCatV1.12B45,2013-07-04 19:11:00,
2013-07-04 12:16:00,79.5,22.5,30.38,ESE,115,2.2,4.0,12,0.00,,,0.00,WeatherCatV1.12B45,2013-07-04 19:16:00,
2013-07-04 12:21:00,79.5,22.5,30.38,SSE,154,2.2,3.1,12,0.00,,,0.00,WeatherCatV1.12B45,2013-07-04 19:21:00,
2013-07-04 12:26:00,79.7,22.6,30.38,WSW,249,3.6,6.3,12,0.00,,,0.00,WeatherCatV1.12B45,2013-07-04 19:26:00,
2013-07-04 12:31:00,80.1,22.9,30.38,East,99,6.7,6.7,12,0.00,,,0.00,WeatherCatV1.12B45,2013-07-04 19:31:00,
2013-07-04 12:36:00,80.1,22.9,30.35,SSW,206,5.8,8.1,12,0.00,,,0.00,WeatherCatV1.12B45,2013-07-04 19:36:00,
2013-07-04 12:41:00,79.7,22.6,30.35,ESE,119,3.1,8.7,12,0.00,,,0.00,WeatherCatV1.12B45,2013-07-04 19:41:00,
2013-07-04 12:46:00,79.9,22.7,30.35,ESE,106,3.6,5.8,12,0.00,,,0.00,WeatherCatV1.12B45,2013-07-04 19:46:00,
2013-07-04 12:51:00,79.9,22.7,30.35,SSE,157,3.1,9.6,12,0.00,,,0.00,WeatherCatV1.12B45,2013-07-04 19:51:00,
2013-07-04 12:56:00,80.1,22.9,30.35,SSE,162,2.7,4.0,12,0.00,,,0.00,WeatherCatV1.12B45,2013-07-04 19:56:00,
2013-07-04 13:01:00,80.2,23.0,30.35,East,89,0.0,4.0,12,0.00,,,0.00,WeatherCatV1.12B45,2013-07-04 20:01:00,
2013-07-04 13:06:00,80.6,23.3,30.35,SSE,147,0.0,4.9,12,0.00,,,0.00,WeatherCatV1.12B45,2013-07-04 20:06:00,
2013-07-04 13:15:00,80.8,23.4,30.35,ESE,122,2.2,8.7,12,0.00,,,0.00,WeatherCatV1.12B45,2013-07-04 20:15:00,
2013-07-04 13:20:00,81.0,23.6,30.35,ESE,119,4.9,5.8,12,0.00,,,0.00,WeatherCatV1.12B45,2013-07-04 20:20:00,
2013-07-04 13:25:00,80.8,23.4,30.35,SSW,204,0.0,8.7,12,0.00,,,0.00,WeatherCatV1.12B45,2013-07-04 20:25:00,
2013-07-04 13:30:00,81.1,23.7,30.35,ENE,69,0.0,5.8,12,0.00,,,0.00,WeatherCatV1.12B45,2013-07-04 20:30:00,
2013-07-04 13:35:00,81.3,23.9,30.35,SSW,197,5.8,8.1,12,0.00,,,0.00,WeatherCatV1.12B45,2013-07-04 20:35:00,
2013-07-04 13:40:00,81.5,24.0,30.35,SSE,166,0.0,6.3,12,0.00,,,0.00,WeatherCatV1.12B45,2013-07-04 20:40:00,
2013-07-04 13:45:00,81.7,24.1,30.35,SE,137,2.7,4.0,12,0.00,,,0.00,WeatherCatV1.12B45,2013-07-04 20:45:00,
2013-07-04 13:50:00,81.7,24.1,30.35,ENE,78,8.7,8.7,12,0.00,,,0.00,WeatherCatV1.12B45,2013-07-04 20:50:00,
2013-07-04 13:55:00,81.9,24.3,30.35,SSE,166,6.3,8.3,12,0.00,,,0.00,WeatherCatV1.12B45,2013-07-04 20:55:00,
2013-07-04 14:00:00,82.4,22.6,30.35,WSW,248,6.7,6.7,11,0.00,,,0.00,WeatherCatV1.12B45,2013-07-04 21:00:00,
2013-07-04 14:05:00,82.8,22.9,30.35,ESE,121,3.6,4.9,11,0.00,,,0.00,WeatherCatV1.12B45,2013-07-04 21:05:00,
2013-07-04 14:10:00,82.6,18.0,30.35,South,187,5.4,6.3,9,0.00,,,0.00,WeatherCatV1.12B45,2013-07-04 21:10:00,
2013-07-04 14:15:00,82.8,22.9,30.35,South,180,6.3,8.7,11,0.00,,,0.00,WeatherCatV1.12B45,2013-07-04 21:15:00,
2013-07-04 14:20:00,83.1,23.2,30.35,North,1,2.7,5.4,11,0.00,,,0.00,WeatherCatV1.12B45,2013-07-04 21:20:00,
2013-07-04 14:25:00,83.1,23.2,30.35,SW,214,4.9,6.3,11,0.00,,,0.00,WeatherCatV1.12B45,2013-07-04 21:25:00,
2013-07-04 14:30:00,83.1,18.4,30.35,ESE,109,2.7,3.1,9,0.00,,,0.00,WeatherCatV1.12B45,2013-07-04 21:30:00,
2013-07-04 14:35:00,83.3,18.6,30.35,South,176,0.0,0.0,9,0.00,,,0.00,WeatherCatV1.12B45,2013-07-04 21:35:00,
2013-07-04 14:40:00,83.7,18.9,30.35,NNE,18,0.0,4.0,9,0.00,,,0.00,WeatherCatV1.12B45,2013-07-04 21:40:00,
2013-07-04 14:45:00,83.8,19.0,30.35,North,11,0.0,3.1,9,0.00,,,0.00,WeatherCatV1.12B45,2013-07-04 21:45:00,
2013-07-04 14:50:00,83.8,19.0,30.32,ESE,117,0.0,2.7,9,0.00,,,0.00,WeatherCatV1.12B45,2013-07-04 21:50:00,
2013-07-04 14:55:00,84.2,16.5,30.32,SE,129,3.1,3.1,8,0.00,,,0.00,WeatherCatV1.12B45,2013-07-04 21:55:00,
2013-07-04 15:00:00,84.0,19.1,30.32,WSW,258,3.1,4.5,9,0.00,,,0.00,WeatherCatV1.12B45,2013-07-04 22:00:00,
2013-07-04 15:05:00,84.0,19.1,30.32,WSW,243,0.0,5.8,9,0.00,,,0.00,WeatherCatV1.12B45,2013-07-04 22:05:00,
2013-07-04 15:10:00,84.2,16.5,30.32,West,263,4.0,5.4,8,0.00,,,0.00,WeatherCatV1.12B45,2013-07-04 22:10:00,
2013-07-04 15:15:00,84.4,16.7,30.32,SSW,192,5.8,5.8,8,0.00,,,0.00,WeatherCatV1.12B45,2013-07-04 22:15:00,
2013-07-04 15:20:00,84.4,24.1,30.32,SE,128,2.7,8.3,11,0.00,,,0.00,WeatherCatV1.12B45,2013-07-04 22:20:00,
2013-07-04 15:25:00,84.2,16.5,30.32,ESE,115,2.7,3.1,8,0.00,,,0.00,WeatherCatV1.12B45,2013-07-04 22:25:00,
2013-07-04 15:30:00,84.2,16.5,30.32,South,176,3.1,6.3,8,0.00,,,0.00,WeatherCatV1.12B45,2013-07-04 22:30:00,
2013-07-04 15:35:00,84.2,16.5,30.32,ESE,118,5.8,5.8,8,0.00,,,0.00,WeatherCatV1.12B45,2013-07-04 22:35:00,
2013-07-04 15:40:00,84.4,16.7,30.32,South,186,5.8,8.3,8,0.00,,,0.00,WeatherCatV1.12B45,2013-07-04 22:40:00,
2013-07-04 15:46:00,84.4,16.7,30.32,SSW,206,3.6,5.8,8,0.00,,,0.00,WeatherCatV1.12B45,2013-07-04 22:46:00,
2013-07-04 15:51:00,83.8,19.0,30.32,West,259,0.0,5.4,9,0.00,,,0.00,WeatherCatV1.12B45,2013-07-04 22:51:00,
2013-07-04 15:56:00,83.7,23.6,30.32,West,266,3.6,4.9,11,0.00,,,0.00,WeatherCatV1.12B45,2013-07-04 22:56:00,
2013-07-04 16:01:00,83.7,18.9,30.32,West,270,2.7,4.0,9,0.00,,,0.00,WeatherCatV1.12B45,2013-07-04 23:01:00,
2013-07-04 16:06:00,83.7,18.9,30.32,South,173,2.2,2.2,9,0.00,,,0.00,WeatherCatV1.12B45,2013-07-04 23:06:00,
2013-07-04 16:11:00,83.8,19.0,30.32,SW,214,4.9,10.1,9,0.00,,,0.00,WeatherCatV1.12B45,2013-07-04 23:11:00,
2013-07-04 16:16:00,83.7,18.9,30.32,WNW,289,3.1,4.0,9,0.00,,,0.00,WeatherCatV1.12B45,2013-07-04 23:16:00,
2013-07-04 16:21:00,83.3,18.6,30.32,North,5,4.0,4.0,9,0.00,,,0.00,WeatherCatV1.12B45,2013-07-04 23:21:00,
2013-07-04 16:26:00,83.1,18.4,30.32,NW,307,2.7,8.7,9,0.00,,,0.00,WeatherCatV1.12B45,2013-07-04 23:26:00,
2013-07-04 16:31:00,83.1,18.4,30.32,SSE,159,0.0,2.7,9,0.00,,,0.00,WeatherCatV1.12B45,2013-07-04 23:31:00,
2013-07-04 16:36:00,83.1,18.4,30.32,West,276,8.1,10.5,9,0.00,,,0.00,WeatherCatV1.12B45,2013-07-04 23:36:00,
2013-07-04 16:41:00,83.1,18.4,30.32,South,178,2.7,4.0,9,0.00,,,0.00,WeatherCatV1.12B45,2013-07-04 23:41:00,
2013-07-04 16:46:00,83.1,18.4,30.32,WSW,241,2.2,3.6,9,0.00,,,0.00,WeatherCatV1.12B45,2013-07-04 23:46:00,
2013-07-04 16:51:00,82.8,18.2,30.29,ESE,121,3.1,3.1,9,0.00,,,0.00,WeatherCatV1.12B45,2013-07-04 23:51:00,
2013-07-04 16:56:00,82.6,18.0,30.29,SSW,196,0.0,4.0,9,0.00,,,0.00,WeatherCatV1.12B45,2013-07-04 23:56:00,
2013-07-04 17:01:00,82.4,17.9,30.29,SW,229,0.0,3.1,9,0.00,,,0.00,WeatherCatV1.12B45,2013-07-05 00:01:00,
2013-07-04 17:06:00,82.0,17.6,30.29,South,181,2.7,2.7,9,0.00,,,0.00,WeatherCatV1.12B45,2013-07-05 00:06:00,
2013-07-04 17:11:00,81.7,17.4,30.29,South,181,3.6,4.9,9,0.00,,,0.00,WeatherCatV1.12B45,2013-07-05 00:11:00,
2013-07-04 17:16:00,81.1,17.0,30.29,South,178,3.1,4.0,9,0.00,,,0.00,WeatherCatV1.12B45,2013-07-05 00:16:00,
2013-07-04 17:21:00,80.8,16.7,30.29,South,186,4.9,6.3,9,0.00,,,0.00,WeatherCatV1.12B45,2013-07-05 00:21:00,
2013-07-04 17:26:00,80.4,18.9,30.29,SSW,206,4.0,4.9,10,0.00,,,0.00,WeatherCatV1.12B45,2013-07-05 00:26:00,
2013-07-04 17:31:00,80.4,18.9,30.29,WSW,239,4.0,5.4,10,0.00,,,0.00,WeatherCatV1.12B45,2013-07-05 00:31:00,
2013-07-04 17:36:00,80.1,18.6,30.29,WSW,239,0.0,6.3,10,0.00,,,0.00,WeatherCatV1.12B45,2013-07-05 00:36:00,
2013-07-04 17:41:00,79.5,18.2,30.29,WSW,253,0.0,0.0,10,0.00,,,0.00,WeatherCatV1.12B45,2013-07-05 00:41:00,
2013-07-04 17:46:00,79.3,18.0,30.29,SSW,210,4.0,5.8,10,0.00,,,0.00,WeatherCatV1.12B45,2013-07-05 00:46:00,
2013-07-04 17:51:00,79.2,17.9,30.29,South,184,0.0,0.0,10,0.00,,,0.00,WeatherCatV1.12B45,2013-07-05 00:51:00,
2013-07-04 17:56:00,78.8,17.6,30.29,WSW,250,2.7,4.9,10,0.00,,,0.00,WeatherCatV1.12B45,2013-07-05 00:56:00,
2013-07-04 18:01:00,78.6,17.5,30.29,ESE,108,2.2,5.8,10,0.00,,,0.00,WeatherCatV1.12B45,2013-07-05 01:01:00,
2013-07-04 18:06:00,78.4,17.4,30.29,North,11,0.0,0.0,10,0.00,,,0.00,WeatherCatV1.12B45,2013-07-05 01:06:00,
2013-07-04 18:11:00,78.6,17.5,30.29,South,189,2.2,3.6,10,0.00,,,0.00,WeatherCatV1.12B45,2013-07-05 01:11:00,
2013-07-04 18:16:00,78.4,17.4,30.29,South,174,2.7,3.1,10,0.00,,,0.00,WeatherCatV1.12B45,2013-07-05 01:16:00,
2013-07-04 18:21:00,78.6,17.5,30.29,WSW,258,2.2,2.7,10,0.00,,,0.00,WeatherCatV1.12B45,2013-07-05 01:21:00,
2013-07-04 18:26:00,78.3,17.2,30.29,South,175,0.0,0.0,10,0.00,,,0.00,WeatherCatV1.12B45,2013-07-05 01:26:00,
2013-07-04 18:31:00,77.9,17.0,30.29,SW,215,2.2,3.1,10,0.00,,,0.00,WeatherCatV1.12B45,2013-07-05 01:31:00,
2013-07-04 18:36:00,77.5,16.7,30.26,South,179,0.0,2.2,10,0.00,,,0.00,WeatherCatV1.12B45,2013-07-05 01:36:00,
2013-07-04 18:41:00,77.4,16.5,30.26,SW,229,0.0,0.0,10,0.00,,,0.00,WeatherCatV1.12B45,2013-07-05 01:41:00,
2013-07-04 18:46:00,77.0,16.3,30.26,WSW,256,3.6,3.6,10,0.00,,,0.00,WeatherCatV1.12B45,2013-07-05 01:46:00,
2013-07-04 18:51:00,77.0,16.3,30.26,WSW,245,0.0,3.6,10,0.00,,,0.00,WeatherCatV1.12B45,2013-07-05 01:51:00,
2013-07-04 18:56:00,77.0,16.3,30.26,South,189,3.1,3.1,10,0.00,,,0.00,WeatherCatV1.12B45,2013-07-05 01:56:00,
2013-07-04 19:01:00,76.8,16.1,30.26,South,171,0.0,0.0,10,0.00,,,0.00,WeatherCatV1.12B45,2013-07-05 02:01:00,
2013-07-04 19:06:00,76.5,15.9,30.26,SSW,198,2.2,2.7,10,0.00,,,0.00,WeatherCatV1.12B45,2013-07-05 02:06:00,
2013-07-04 19:11:00,76.3,15.7,30.26,SSW,212,0.0,0.0,10,0.00,,,0.00,WeatherCatV1.12B45,2013-07-05 02:11:00,
2013-07-04 19:16:00,75.9,15.4,30.26,SSW,197,4.0,4.0,10,0.00,,,0.00,WeatherCatV1.12B45,2013-07-05 02:16:00,
2013-07-04 19:21:00,75.6,15.2,30.26,SW,235,0.0,0.0,10,0.00,,,0.00,WeatherCatV1.12B45,2013-07-05 02:21:00,
2013-07-04 19:26:00,75.2,14.9,30.26,SW,234,0.0,0.0,10,0.00,,,0.00,WeatherCatV1.12B45,2013-07-05 02:26:00,
2013-07-04 19:31:00,74.7,16.7,30.26,WSW,254,2.2,3.1,11,0.00,,,0.00,WeatherCatV1.12B45,2013-07-05 02:31:00,
2013-07-04 19:36:00,74.3,16.4,30.26,SSW,205,4.9,4.9,11,0.00,,,0.00,WeatherCatV1.12B45,2013-07-05 02:36:00,
2013-07-04 19:41:00,74.1,16.3,30.26,SSW,207,0.0,0.0,11,0.00,,,0.00,WeatherCatV1.12B45,2013-07-05 02:41:00,
2013-07-04 19:46:00,73.8,16.0,30.26,WNW,298,0.0,0.0,11,0.00,,,0.00,WeatherCatV1.12B45,2013-07-05 02:46:00,
2013-07-04 19:51:00,73.6,15.8,30.29,NNW,342,0.0,0.0,11,0.00,,,0.00,WeatherCatV1.12B45,2013-07-05 02:51:00,
2013-07-04 19:56:00,73.0,15.4,30.29,NNW,342,0.0,0.0,11,0.00,,,0.00,WeatherCatV1.12B45,2013-07-05 02:56:00,
2013-07-04 20:01:00,72.7,15.2,30.29,SW,218,0.0,0.0,11,0.00,,,0.00,WeatherCatV1.12B45,2013-07-05 03:01:00,
2013-07-04 20:06:00,72.3,14.9,30.26,SW,218,0.0,0.0,11,0.00,,,0.00,WeatherCatV1.12B45,2013-07-05 03:06:00,
2013-07-04 20:11:00,71.8,14.5,30.26,SW,218,0.0,0.0,11,0.00,,,0.00,WeatherCatV1.12B45,2013-07-05 03:11:00,
2013-07-04 20:16:00,71.4,16.2,30.26,SW,218,0.0,0.0,12,0.00,,,0.00,WeatherCatV1.12B45,2013-07-05 03:16:00,
2013-07-04 20:21:00,71.1,19.5,30.26,SW,221,0.0,0.0,14,0.00,,,0.00,WeatherCatV1.12B45,2013-07-05 03:21:00,
2013-07-04 20:26:00,70.7,15.6,30.26,SW,218,0.0,0.0,12,0.00,,,0.00,WeatherCatV1.12B45,2013-07-05 03:26:00,
2013-07-04 20:31:00,70.5,19.0,30.26,SW,216,0.0,0.0,14,0.00,,,0.00,WeatherCatV1.12B45,2013-07-05 03:31:00,
2013-07-04 20:36:00,70.5,15.5,30.26,SW,230,2.2,2.7,12,0.00,,,0.00,WeatherCatV1.12B45,2013-07-05 03:36:00,
2013-07-04 20:41:00,70.3,18.9,30.26,WSW,238,0.0,0.0,14,0.00,,,0.00,WeatherCatV1.12B45,2013-07-05 03:41:00,
2013-07-04 20:46:00,70.0,18.6,30.26,SW,228,0.0,0.0,14,0.00,,,0.00,WeatherCatV1.12B45,2013-07-05 03:46:00,
2013-07-04 20:51:00,69.8,18.5,30.26,SSW,196,0.0,2.7,14,0.00,,,0.00,WeatherCatV1.12B45,2013-07-05 03:51:00,
2013-07-04 20:56:00,69.8,18.5,30.26,SSW,199,0.0,3.6,14,0.00,,,0.00,WeatherCatV1.12B45,2013-07-05 03:56:00,
2013-07-04 21:01:00,69.6,19.9,30.26,SW,224,0.0,2.2,15,0.00,,,0.00,WeatherCatV1.12B45,2013-07-05 04:01:00,
2013-07-04 21:06:00,69.4,19.8,30.26,SSW,199,2.2,4.0,15,0.00,,,0.00,WeatherCatV1.12B45,2013-07-05 04:06:00,
2013-07-04 21:11:00,69.3,19.6,30.26,SW,229,2.2,2.7,15,0.00,,,0.00,WeatherCatV1.12B45,2013-07-05 04:11:00,
2013-07-04 21:16:00,69.3,19.6,30.26,SW,221,2.2,3.1,15,0.00,,,0.00,WeatherCatV1.12B45,2013-07-05 04:16:00,
2013-07-04 21:21:00,69.8,14.9,30.26,SW,223,3.1,4.0,12,0.00,,,0.00,WeatherCatV1.12B45,2013-07-05 04:21:00,
2013-07-04 21:26:00,70.5,15.5,30.26,SSW,209,3.1,3.1,12,0.00,,,0.00,WeatherCatV1.12B45,2013-07-05 04:26:00,
2013-07-04 21:31:00,70.3,15.3,30.26,SW,229,2.7,3.6,12,0.00,,,0.00,WeatherCatV1.12B45,2013-07-05 04:31:00,
2013-07-04 21:36:00,70.0,15.1,30.26,South,188,2.7,4.0,12,0.00,,,0.00,WeatherCatV1.12B45,2013-07-05 04:36:00,
2013-07-04 21:41:00,70.0,15.1,30.26,SW,224,0.0,3.6,12,0.00,,,0.00,WeatherCatV1.12B45,2013-07-05 04:41:00,
2013-07-04 21:46:00,69.6,19.9,30.26,WSW,253,2.2,3.6,15,0.00,,,0.00,WeatherCatV1.12B45,2013-07-05 04:46:00,
2013-07-04 21:51:00,69.8,14.9,30.26,WSW,241,0.0,0.0,12,0.00,,,0.00,WeatherCatV1.12B45,2013-07-05 04:51:00,
2013-07-04 21:56:00,69.8,14.9,30.26,SW,219,2.7,4.0,12,0.00,,,0.00,WeatherCatV1.12B45,2013-07-05 04:56:00,
2013-07-04 22:01:00,70.3,15.3,30.26,SW,236,0.0,0.0,12,0.00,,,0.00,WeatherCatV1.12B45,2013-07-05 05:01:00,
2013-07-04 22:06:00,70.2,15.2,30.26,WSW,250,2.7,3.6,12,0.00,,,0.00,WeatherCatV1.12B45,2013-07-05 05:06:00,
2013-07-04 22:11:00,70.3,15.3,30.26,West,268,3.6,3.6,12,0.00,,,0.00,WeatherCatV1.12B45,2013-07-05 05:11:00,
2013-07-04 22:16:00,70.3,15.3,30.26,SW,221,0.0,3.1,12,0.00,,,0.00,WeatherCatV1.12B45,2013-07-05 05:16:00,
2013-07-04 22:21:00,70.0,15.1,30.26,SSW,208,2.2,3.1,12,0.00,,,0.00,WeatherCatV1.12B45,2013-07-05 05:21:00,
2013-07-04 22:26:00,69.6,14.8,30.26,WNW,286,0.0,3.1,12,0.00,,,0.00,WeatherCatV1.12B45,2013-07-05 05:26:00,
2013-07-04 22:31:00,69.6,14.8,30.26,West,262,2.2,4.0,12,0.00,,,0.00,WeatherCatV1.12B45,2013-07-05 05:31:00,
2013-07-04 22:36:00,69.1,14.4,30.26,SSE,162,0.0,0.0,12,0.00,,,0.00,WeatherCatV1.12B45,2013-07-05 05:36:00,
2013-07-04 22:41:00,69.1,14.4,30.26,SSW,203,3.1,4.0,12,0.00,,,0.00,WeatherCatV1.12B45,2013-07-05 05:41:00,
2013-07-04 22:46:00,69.1,14.4,30.26,SW,220,0.0,0.0,12,0.00,,,0.00,WeatherCatV1.12B45,2013-07-05 05:46:00,
2013-07-04 22:51:00,68.9,14.2,30.26,North,350,0.0,3.6,12,0.00,,,0.00,WeatherCatV1.12B45,2013-07-05 05:51:00,
2013-07-04 22:56:00,68.2,13.7,30.26,SW,226,0.0,0.0,12,0.00,,,0.00,WeatherCatV1.12B45,2013-07-05 05:56:00,
2013-07-04 23:01:00,67.3,18.1,30.26,SW,228,0.0,0.0,15,0.00,,,0.00,WeatherCatV1.12B45,2013-07-05 06:01:00,
2013-07-04 23:06:00,66.6,17.5,30.26,SW,231,0.0,0.0,15,0.00,,,0.00,WeatherCatV1.12B45,2013-07-05 06:06:00,
2013-07-04 23:11:00,66.0,17.1,30.26,South,191,0.0,0.0,15,0.00,,,0.00,WeatherCatV1.12B45,2013-07-05 06:11:00,
2013-07-04 23:16:00,66.0,17.1,30.26,SSW,200,0.0,0.0,15,0.00,,,0.00,WeatherCatV1.12B45,2013-07-05 06:16:00,
2013-07-04 23:21:00,66.0,17.1,30.26,South,171,0.0,0.0,15,0.00,,,0.00,WeatherCatV1.12B45,2013-07-05 06:21:00,
2013-07-04 23:26:00,65.5,20.9,30.26,SSW,213,0.0,0.0,18,0.00,,,0.00,WeatherCatV1.12B45,2013-07-05 06:26:00,
2013-07-04 23:31:00,64.8,20.3,30.26,SW,215,0.0,0.0,18,0.00,,,0.00,WeatherCatV1.12B45,2013-07-05 06:31:00,
2013-07-04 23:36:00,64.2,23.5,30.26,SW,214,0.0,0.0,21,0.00,,,0.00,WeatherCatV1.12B45,2013-07-05 06:36:00,
2013-07-04 23:41:00,64.0,23.3,30.26,South,180,0.0,0.0,21,0.00,,,0.00,WeatherCatV1.12B45,2013-07-05 06:41:00,
2013-07-04 23:46:00,63.9,25.3,30.26,SW,225,2.2,2.7,23,0.00,,,0.00,WeatherCatV1.12B45,2013-07-05 06:46:00,
2013-07-04 23:51:00,63.7,25.2,30.26,SW,235,0.0,0.0,23,0.00,,,0.00,WeatherCatV1.12B45,2013-07-05 06:51:00,
2013-07-04 23:56:00,63.5,26.1,30.26,SW,235,0.0,0.0,24,0.00,,,0.00,WeatherCatV1.12B45,2013-07-05 06:56:00,